Regional Weather Roundup
Issued by NWS Kansas City/Pleasant Hill, MO

Home | Current Version | Previous Version | Graphics & Text | Print | Product List | Glossary Off
Versions: 1 2 3 4 5 6 7 8 9 10 11 12 13 14 15 16 17 18 19 20 21 22 23 24 25 26 27 28 29 30 31 32 33 34 35 36 37 38 39 40 41 42 43 44 45 46 47 48 49 50

000
ASUS43 KEAX 270810
RWREAX

WEATHER ROUNDUP FOR EASTERN KANSAS AND NORTHWEST MISSOURI
NATIONAL WEATHER SERVICE KANSAS CITY/PLEASANT HILL MO
200 AM CST FRI FEB 27 2015

KSZ040-057-103>105-MOZ028-029-037-043-270900-
...KANSAS CITY METROPOLITAN AREA...

CITY           SKY/WX    TMP DP  RH WIND       PRES   REMARKS
K.C. INTL      CLEAR      2  -4  76 N7        30.58S WCI -11
K.C. DOWNTOWN  CLEAR      6  -4  63 N6        30.61S WCI  -4
LEES SUMMIT    CLEAR      5  -4  66 N9        30.57F WCI  -9
OLATHE - IXD   CLEAR      3  -3  76 N6        30.58S WCI  -8
OLATHE - OJC   CLEAR      6  -4  63 N9        30.56S WCI  -8
LAWRENCE       CLEAR      3  -3  76 NW3       30.61R

$$

MOZ001>008-011>017-020>025-030>033-038>040-044>046-053-054-270900-
...NORTHERN AND CENTRAL MISSOURI...

CITY           SKY/WX    TMP DP  RH WIND       PRES   REMARKS
ST. JOSEPH     CLEAR      2  -5  72 CALM      30.62S
MOSBY          SUNNY      5   0  78 N5        30.61S WCI  -4
WARRENSBURG    CLEAR      5   0  78 N6        30.60S WCI  -6
WHITEMAN AFB   CLEAR      5  -2  73 N9        30.58S WCI  -9
CLINTON        CLEAR     10   3  72 N10       30.58F WCI  -3
SEDALIA        CLEAR      7  -1  70 N9        30.58F WCI  -7
WARSAW         NOT AVBL
MARSHALL       CLEAR      9   0  66 N9        30.60S WCI  -5
CHILLICOTHE      N/A      2  -5  72 CALM      30.62R
MOBERLY        CLEAR      3  -6  66 CALM      30.59R
KIRKSVILLE     CLEAR     -3  -7  82 W3        30.57R

$$

MOZ041-047>049-056>058-063>065-088>090-097-270900-
...EASTERN AND SOUTHERN MISSOURI...

CITY           SKY/WX    TMP DP  RH WIND       PRES   REMARKS
ST. LOUIS INTL CLEAR      7  -3  64 NW5       30.57R WCI  -2
SPIRIT OF STL  CLEAR      7  -4  60 N10       30.58R WCI  -8
COLUMBIA       CLEAR      5  -3  69 N12       30.56S WCI -11
JEFFERSON CITY CLEAR      7  -4  60 N8        30.60R WCI  -6
MEXICO         CLEAR      5  -2  72 NW6       30.57R WCI  -6
HANNIBAL       CLEAR      0  -9  65 NW6       30.57F WCI -12
ROLLA          CLEAR      6  -3  66 N12       30.50R WCI  -9
OSAGE BEACH    CLEAR      9   0  66 N3        30.54S
SPRINGFIELD    PTCLDY    11   1  64 N9        30.50R WCI  -2
BRANSON        CLEAR     10   3  72 CALM      30.49R
NEVADA         PTCLDY     9   1  72 N7        30.59R WCI  -3
JOPLIN         PTCLDY    13   3  64 N7        30.55R WCI   3
WEST PLAINS    PTCLDY    12   2  64 N7        30.47S WCI   1

$$

IAZ060-094-KSZ022-034>040-054-083-096-NEZ052-066-093-270900-
...KANSAS...SOUTHEAST NEBRASKA AND IOWA...

CITY           SKY/WX    TMP DP  RH WIND       PRES   REMARKS
TOPEKA         CLEAR      5  -2  72 NW3       30.61S
MANHATTAN      CLEAR      5   0  79 N5        30.60S WCI  -4
EMPORIA        CLEAR      6   0  76 NE6       30.58R WCI  -4
CHANUTE        CLEAR     10   1  67 N10       30.59R WCI  -4
WICHITA        MOCLDY    13   1  59 NE14      30.56R WCI  -2
OMAHA          CLEAR      0  -4  83 NW3       30.61R
LINCOLN        CLEAR     -4  -9  79 N7        30.60S WCI -18
FALLS CITY     CLEAR     -1  -6  79 NW3       30.60S
LAMONI         CLEAR     -3  -8  79 NW7       30.55S WCI -16
DES MOINES     CLEAR     -4 -10  75 W6        30.57R WCI -16

$$




USA.gov is the U.S. government's official web portal to all federal, state and local government web resources and services.